Flag for Greece Weather past 2 weeks in Rhodes, Rhodes, Greece

Now
84 °F

Clear.


Feels Like: 87 °F
Forecast: 78 / 86 °F
Wind: 12 mph from Southwest

Location: Rhodes Airport

Current Time: Aug 29, 2014 at 11:24:46 PM

Latest Report: Aug 29, 2014 at 9:50 PM


Visibility: 10 mi

Pressure: 29.74 "Hg

Humidity: 58%

Dew point: 68 °F

Location of RhodesLocation

Historic Weather in Rhodes — Graph

°F

Rhodes temperature yesterday

Maximum temperature yesterday: 86 °F (at 12:50 PM)
Minimum temperature yesterday: 77 °F (at 12:50 AM)
Average temperature yesterday: 81 °F

Past Weeks' High & Low Weather Summary

 TemperatureHumidityPressure
High91 °F (Aug 22, 12:20 PM)89% (Aug 15, 7:20 AM)29.92 "Hg (Aug 15, 7:20 AM)
Low77 °F (Aug 15, 7:20 AM)38% (Aug 25, 2:50 PM)29.56 "Hg (Aug 17, 7:50 PM)
Average83 °F67%29.74 "Hg
* Reported Aug 14 9:20 PM — Aug 29 9:50 PM, Rhodes, Weather by CustomWeather, © 2014

Note: Actual official high and low records may vary slightly from our data, if they occured in-between our weather recording intervals... More about our weather records

Advertising

Rhodes weather history for previous 24 hours

 ConditionsComfort  
Time TempWeatherWind HumidityBarometerVisibility
9:50 PM
Aug 29
84 °FClear.12 mph58%29.74 "Hg10 mi
9:20 PM84 °FClear.12 mph58%29.74 "Hg10 mi
8:50 PM84 °FClear.10 mph58%29.74 "Hg10 mi
8:20 PM88 °FSunny.10 mph55%29.74 "Hg10 mi
7:50 PM88 °FSunny.9 mph55%29.74 "Hg10 mi
7:20 PM88 °FSunny.14 mph55%29.71 "Hg10 mi
6:50 PM88 °FSunny.16 mph55%29.71 "Hg10 mi
5:50 PM90 °FSunny.16 mph52%29.71 "Hg10 mi
5:20 PM90 °FSunny.16 mph55%29.74 "Hg10 mi
4:50 PM90 °FSunny.17 mph55%29.74 "Hg10 mi
4:20 PM90 °FSunny.14 mph55%29.71 "Hg10 mi
3:50 PM90 °FSunny.16 mph55%29.71 "Hg10 mi
3:20 PM90 °FSunny.16 mph55%29.71 "Hg10 mi
2:50 PM90 °FSunny.15 mph55%29.71 "Hg10 mi
2:20 PM86 °FSunny.15 mph66%29.74 "Hg10 mi
1:50 PM86 °FSunny.14 mph66%29.74 "Hg10 mi
1:20 PM86 °FSunny.14 mph66%29.74 "Hg10 mi
12:50 PM86 °FSunny.13 mph66%29.74 "Hg10 mi
12:20 PM86 °FSunny.12 mph66%29.74 "Hg10 mi
11:50 AM86 °FSunny.9 mph66%29.74 "Hg10 mi
11:20 AM84 °FSunny.10 mph70%29.74 "Hg10 mi
10:50 AM84 °FSunny.9 mph70%29.74 "Hg10 mi
10:20 AM82 °FSunny.9 mph79%29.74 "Hg10 mi
9:50 AM82 °FSunny.9 mph79%29.74 "Hg10 mi
9:20 AM81 °FPassing clouds.12 mph84%29.74 "HgN/A
8:50 AM81 °FPassing clouds.12 mph84%29.74 "HgN/A
8:20 AM79 °FPassing clouds.10 mph89%29.71 "HgN/A
7:50 AM79 °FSunny.9 mph89%29.71 "Hg10 mi
7:20 AM77 °FClear.9 mph83%29.68 "Hg10 mi
6:50 AM77 °FClear.9 mph83%29.68 "Hg10 mi
6:20 AM77 °FClear.12 mph83%29.68 "Hg10 mi
5:50 AM77 °FClear.12 mph83%29.68 "Hg10 mi
5:20 AM77 °FClear.9 mph83%29.71 "Hg10 mi
4:50 AM77 °FClear.9 mph83%29.71 "Hg10 mi
4:20 AM77 °FClear.12 mph83%29.71 "Hg10 mi
3:50 AM77 °FClear.13 mph83%29.71 "Hg10 mi
3:20 AM79 °FClear.14 mph79%29.71 "Hg10 mi
2:50 AM79 °FClear.10 mph79%29.71 "Hg10 mi
2:20 AM79 °FClear.10 mph74%29.71 "Hg10 mi
1:50 AM79 °FClear.10 mph74%29.71 "Hg10 mi
1:20 AM79 °FClear.12 mph79%29.71 "Hg10 mi
12:50 AM81 °FClear.12 mph74%29.71 "Hg10 mi
12:20 AM81 °FClear.13 mph74%29.71 "Hg10 mi
11:50 PM
Aug 28
81 °FClear.10 mph74%29.71 "Hg10 mi
11:20 PM81 °FClear.7 mph74%29.71 "Hg10 mi
Weather by CustomWeather, © 2014

See weather overviewHow to use our weather pages